Year,Month,Day,Hour,Minute,Value (Times are PST for insolation in W/m^2)
2022,03,31,00,00,0.00
2022,03,31,00,01,0.00
2022,03,31,00,02,0.00
2022,03,31,00,03,0.00
2022,03,31,00,04,0.00
2022,03,31,00,05,0.00
2022,03,31,00,06,0.00
2022,03,31,00,07,0.00
2022,03,31,00,08,0.00
2022,03,31,00,09,0.00
2022,03,31,00,10,0.00
2022,03,31,00,11,0.00
2022,03,31,00,12,0.00
2022,03,31,00,13,0.00
2022,03,31,00,14,0.00
2022,03,31,00,15,0.00
2022,03,31,00,16,0.00
2022,03,31,00,17,0.00
2022,03,31,00,18,0.00
2022,03,31,00,19,0.00
2022,03,31,00,20,0.00
2022,03,31,00,21,0.00
2022,03,31,00,22,0.00
2022,03,31,00,23,0.00
2022,03,31,00,24,0.00
2022,03,31,00,25,0.00
2022,03,31,00,26,0.00
2022,03,31,00,27,0.00
2022,03,31,00,28,0.00
2022,03,31,00,29,0.00
2022,03,31,00,30,0.00
2022,03,31,00,31,0.00
2022,03,31,00,32,0.00
2022,03,31,00,33,0.00
2022,03,31,00,34,0.00
2022,03,31,00,35,0.00
2022,03,31,00,36,0.00
2022,03,31,00,37,0.00
2022,03,31,00,38,0.00
2022,03,31,00,39,0.00
2022,03,31,00,40,0.00
2022,03,31,00,41,0.00
2022,03,31,00,42,0.00
2022,03,31,00,43,0.00
2022,03,31,00,44,0.00
2022,03,31,00,45,0.00
2022,03,31,00,46,0.00
2022,03,31,00,47,0.00
2022,03,31,00,48,0.00
2022,03,31,00,49,0.00
2022,03,31,00,50,0.00
2022,03,31,00,51,0.00
2022,03,31,00,52,0.00
2022,03,31,00,53,0.00
2022,03,31,00,54,0.00
2022,03,31,00,55,0.00
2022,03,31,00,56,0.00
2022,03,31,00,57,0.00
2022,03,31,00,58,0.00
2022,03,31,00,59,0.00
2022,03,31,01,00,0.00
2022,03,31,01,01,0.00
2022,03,31,01,02,0.00
2022,03,31,01,03,0.00
2022,03,31,01,04,0.00
2022,03,31,01,05,0.00
2022,03,31,01,06,0.00
2022,03,31,01,07,0.00
2022,03,31,01,08,0.00
2022,03,31,01,09,0.00
2022,03,31,01,10,0.00
2022,03,31,01,11,0.00
2022,03,31,01,12,0.00
2022,03,31,01,13,0.00
2022,03,31,01,14,0.00
2022,03,31,01,15,0.00
2022,03,31,01,16,0.00
2022,03,31,01,17,0.00
2022,03,31,01,18,0.00
2022,03,31,01,19,0.00
2022,03,31,01,20,0.00
2022,03,31,01,21,0.00
2022,03,31,01,22,0.00
2022,03,31,01,23,0.00
2022,03,31,01,24,0.00
2022,03,31,01,25,0.00
2022,03,31,01,26,0.00
2022,03,31,01,27,0.00
2022,03,31,01,28,0.00
2022,03,31,01,29,0.00
2022,03,31,01,30,0.00
2022,03,31,01,31,0.00
2022,03,31,01,32,0.00
2022,03,31,01,33,0.00
2022,03,31,01,34,0.00
2022,03,31,01,35,0.00
2022,03,31,01,36,0.00
2022,03,31,01,37,0.00
2022,03,31,01,38,0.00
2022,03,31,01,39,0.00
2022,03,31,01,40,0.00
2022,03,31,01,41,0.00
2022,03,31,01,42,0.00
2022,03,31,01,43,0.00
2022,03,31,01,44,0.00
2022,03,31,01,45,0.00
2022,03,31,01,46,0.00
2022,03,31,01,47,0.00
2022,03,31,01,48,0.00
2022,03,31,01,49,0.00
2022,03,31,01,50,0.00
2022,03,31,01,51,0.00
2022,03,31,01,52,0.00
2022,03,31,01,53,0.00
2022,03,31,01,54,0.00
2022,03,31,01,55,0.00
2022,03,31,01,56,0.00
2022,03,31,01,57,0.00
2022,03,31,01,58,0.00
2022,03,31,01,59,0.00
2022,03,31,02,00,0.00
2022,03,31,02,01,0.00
2022,03,31,02,02,0.00
2022,03,31,02,03,0.00
2022,03,31,02,04,0.00
2022,03,31,02,05,0.00
2022,03,31,02,06,0.00
2022,03,31,02,07,0.00
2022,03,31,02,08,0.00
2022,03,31,02,09,0.00
2022,03,31,02,10,0.00
2022,03,31,02,11,0.00
2022,03,31,02,12,0.00
2022,03,31,02,13,0.00
2022,03,31,02,14,0.00
2022,03,31,02,15,0.00
2022,03,31,02,16,0.00
2022,03,31,02,17,0.00
2022,03,31,02,18,0.00
2022,03,31,02,19,0.00
2022,03,31,02,20,0.00
2022,03,31,02,21,0.00
2022,03,31,02,22,0.00
2022,03,31,02,23,0.00
2022,03,31,02,24,0.00
2022,03,31,02,25,0.00
2022,03,31,02,26,0.00
2022,03,31,02,27,0.00
2022,03,31,02,28,0.00
2022,03,31,02,29,0.00
2022,03,31,02,30,0.00
2022,03,31,02,31,0.00
2022,03,31,02,32,0.00
2022,03,31,02,33,0.00
2022,03,31,02,34,0.00
2022,03,31,02,35,0.00
2022,03,31,02,36,0.00
2022,03,31,02,37,0.00
2022,03,31,02,38,0.00
2022,03,31,02,39,0.00
2022,03,31,02,40,0.00
2022,03,31,02,41,0.00
2022,03,31,02,42,0.00
2022,03,31,02,43,0.00
2022,03,31,02,44,0.00
2022,03,31,02,45,0.00
2022,03,31,02,46,0.00
2022,03,31,02,47,0.00
2022,03,31,02,48,0.00
2022,03,31,02,49,0.00
2022,03,31,02,50,0.00
2022,03,31,02,51,0.00
2022,03,31,02,52,0.00
2022,03,31,02,53,0.00
2022,03,31,02,54,0.00
2022,03,31,02,55,0.00
2022,03,31,02,56,0.00
2022,03,31,02,57,0.00
2022,03,31,02,58,0.00
2022,03,31,02,59,0.00
2022,03,31,03,00,0.00
2022,03,31,03,01,0.00
2022,03,31,03,02,0.00
2022,03,31,03,03,0.00
2022,03,31,03,04,0.00
2022,03,31,03,05,0.00
2022,03,31,03,06,0.00
2022,03,31,03,07,0.00
2022,03,31,03,08,0.00
2022,03,31,03,09,0.00
2022,03,31,03,10,0.00
2022,03,31,03,11,0.00
2022,03,31,03,12,0.00
2022,03,31,03,13,0.00
2022,03,31,03,14,0.00
2022,03,31,03,15,0.00
2022,03,31,03,16,0.00
2022,03,31,03,17,0.00
2022,03,31,03,18,0.00
2022,03,31,03,19,0.00
2022,03,31,03,20,0.00
2022,03,31,03,21,0.00
2022,03,31,03,22,0.00
2022,03,31,03,23,0.00
2022,03,31,03,24,0.00
2022,03,31,03,25,0.00
2022,03,31,03,26,0.00
2022,03,31,03,27,0.00
2022,03,31,03,28,0.00
2022,03,31,03,29,0.00
2022,03,31,03,30,0.00
2022,03,31,03,31,0.00
2022,03,31,03,32,0.00
2022,03,31,03,33,0.00
2022,03,31,03,34,0.00
2022,03,31,03,35,0.00
2022,03,31,03,36,0.00
2022,03,31,03,37,0.00
2022,03,31,03,38,0.00
2022,03,31,03,39,0.00
2022,03,31,03,40,0.00
2022,03,31,03,41,0.00
2022,03,31,03,42,0.00
2022,03,31,03,43,0.00
2022,03,31,03,44,0.00
2022,03,31,03,45,0.00
2022,03,31,03,46,0.00
2022,03,31,03,47,0.00
2022,03,31,03,48,0.00
2022,03,31,03,49,0.00
2022,03,31,03,50,0.00
2022,03,31,03,51,0.00
2022,03,31,03,52,0.00
2022,03,31,03,53,0.00
2022,03,31,03,54,0.00
2022,03,31,03,55,0.00
2022,03,31,03,56,0.00
2022,03,31,03,57,0.00
2022,03,31,03,58,0.00
2022,03,31,03,59,0.00
2022,03,31,04,00,0.00
2022,03,31,04,01,0.00
2022,03,31,04,02,0.00
2022,03,31,04,03,0.00
2022,03,31,04,04,0.00
2022,03,31,04,05,0.00
2022,03,31,04,06,0.00
2022,03,31,04,07,0.00
2022,03,31,04,08,0.00
2022,03,31,04,09,0.00
2022,03,31,04,10,0.00
2022,03,31,04,11,0.00
2022,03,31,04,12,0.00
2022,03,31,04,13,0.00
2022,03,31,04,14,0.00
2022,03,31,04,15,0.00
2022,03,31,04,16,0.00
2022,03,31,04,17,0.00
2022,03,31,04,18,0.00
2022,03,31,04,19,0.00
2022,03,31,04,20,0.00
2022,03,31,04,21,0.00
2022,03,31,04,22,0.00
2022,03,31,04,23,0.00
2022,03,31,04,24,0.00
2022,03,31,04,25,0.00
2022,03,31,04,26,0.00
2022,03,31,04,27,0.00
2022,03,31,04,28,0.00
2022,03,31,04,29,0.00
2022,03,31,04,30,0.00
2022,03,31,04,31,0.00
2022,03,31,04,32,0.00
2022,03,31,04,33,0.00
2022,03,31,04,34,0.00
2022,03,31,04,35,0.00
2022,03,31,04,36,0.00
2022,03,31,04,37,0.00
2022,03,31,04,38,0.00
2022,03,31,04,39,0.00
2022,03,31,04,40,0.00
2022,03,31,04,41,0.00
2022,03,31,04,42,0.00
2022,03,31,04,43,0.00
2022,03,31,04,44,0.00
2022,03,31,04,45,0.00
2022,03,31,04,46,0.00
2022,03,31,04,47,0.00
2022,03,31,04,48,0.00
2022,03,31,04,49,0.00
2022,03,31,04,50,0.00
2022,03,31,04,51,0.00
2022,03,31,04,52,0.00
2022,03,31,04,53,0.00
2022,03,31,04,54,0.00
2022,03,31,04,55,0.00
2022,03,31,04,56,0.00
2022,03,31,04,57,0.00
2022,03,31,04,58,0.00
2022,03,31,04,59,0.00
2022,03,31,05,00,0.00
2022,03,31,05,01,0.00
2022,03,31,05,02,0.00
2022,03,31,05,03,0.00
2022,03,31,05,04,0.00
2022,03,31,05,05,0.00
2022,03,31,05,06,0.00
2022,03,31,05,07,0.00
2022,03,31,05,08,0.00
2022,03,31,05,09,0.00
2022,03,31,05,10,0.00
2022,03,31,05,11,0.00
2022,03,31,05,12,0.00
2022,03,31,05,13,0.00
2022,03,31,05,14,0.00
2022,03,31,05,15,0.00
2022,03,31,05,16,0.00
2022,03,31,05,17,0.00
2022,03,31,05,18,0.00
2022,03,31,05,19,0.00
2022,03,31,05,20,0.00
2022,03,31,05,21,0.00
2022,03,31,05,22,0.00
2022,03,31,05,23,0.00
2022,03,31,05,24,0.00
2022,03,31,05,25,0.00
2022,03,31,05,26,0.00
2022,03,31,05,27,0.00
2022,03,31,05,28,0.00
2022,03,31,05,29,0.00
2022,03,31,05,30,0.00
2022,03,31,05,31,0.00
2022,03,31,05,32,0.00
2022,03,31,05,33,0.00
2022,03,31,05,34,0.00
2022,03,31,05,35,0.00
2022,03,31,05,36,0.00
2022,03,31,05,37,0.00
2022,03,31,05,38,0.00
2022,03,31,05,39,0.00
2022,03,31,05,40,0.00
2022,03,31,05,41,0.00
2022,03,31,05,42,0.00
2022,03,31,05,43,0.00
2022,03,31,05,44,0.00
2022,03,31,05,45,0.00
2022,03,31,05,46,0.00
2022,03,31,05,47,0.00
2022,03,31,05,48,0.00
2022,03,31,05,49,0.00
2022,03,31,05,50,0.00
2022,03,31,05,51,0.00
2022,03,31,05,52,0.00
2022,03,31,05,53,0.00
2022,03,31,05,54,0.00
2022,03,31,05,55,0.00
2022,03,31,05,56,0.00
2022,03,31,05,57,0.00
2022,03,31,05,58,0.00
2022,03,31,05,59,0.00
2022,03,31,06,00,0.00
2022,03,31,06,01,0.00
2022,03,31,06,02,0.00
2022,03,31,06,03,0.00
2022,03,31,06,04,0.00
2022,03,31,06,05,0.00
2022,03,31,06,06,0.00
2022,03,31,06,07,0.00
2022,03,31,06,08,0.00
2022,03,31,06,09,0.00
2022,03,31,06,10,0.00
2022,03,31,06,11,0.00
2022,03,31,06,12,0.00
2022,03,31,06,13,0.00
2022,03,31,06,14,0.00
2022,03,31,06,15,0.00
2022,03,31,06,16,0.00
2022,03,31,06,17,0.00
2022,03,31,06,18,0.00
2022,03,31,06,19,0.00
2022,03,31,06,20,0.00
2022,03,31,06,21,0.00
2022,03,31,06,22,0.00
2022,03,31,06,23,0.00
2022,03,31,06,24,0.00
2022,03,31,06,25,0.00
2022,03,31,06,26,0.00
2022,03,31,06,27,0.00
2022,03,31,06,28,0.00
2022,03,31,06,29,0.00
2022,03,31,06,30,0.00
2022,03,31,06,31,0.00
2022,03,31,06,32,0.00
2022,03,31,06,33,0.00
2022,03,31,06,34,0.00
2022,03,31,06,35,0.00
2022,03,31,06,36,0.00
2022,03,31,06,37,0.00
2022,03,31,06,38,0.00
2022,03,31,06,39,0.00
2022,03,31,06,40,0.00
2022,03,31,06,41,0.00
2022,03,31,06,42,0.00
2022,03,31,06,43,0.00
2022,03,31,06,44,0.00
2022,03,31,06,45,0.00
2022,03,31,06,46,0.00
2022,03,31,06,47,0.00
2022,03,31,06,48,0.00
2022,03,31,06,49,0.00
2022,03,31,06,50,0.00
2022,03,31,06,51,0.00
2022,03,31,06,52,0.00
2022,03,31,06,53,0.00
2022,03,31,06,54,0.00
2022,03,31,06,55,0.00
2022,03,31,06,56,1.70
2022,03,31,06,57,5.00
2022,03,31,06,58,5.00
2022,03,31,06,59,5.00
2022,03,31,07,00,5.00
2022,03,31,07,01,5.10
2022,03,31,07,02,7.00
2022,03,31,07,03,7.00
2022,03,31,07,04,7.00
2022,03,31,07,05,8.20
2022,03,31,07,06,9.00
2022,03,31,07,07,9.00
2022,03,31,07,08,10.90
2022,03,31,07,09,11.00
2022,03,31,07,10,11.00
2022,03,31,07,11,11.40
2022,03,31,07,12,12.00
2022,03,31,07,13,13.30
2022,03,31,07,14,15.70
2022,03,31,07,15,17.90
2022,03,31,07,16,18.20
2022,03,31,07,17,19.00
2022,03,31,07,18,19.90
2022,03,31,07,19,22.20
2022,03,31,07,20,24.50
2022,03,31,07,21,25.00
2022,03,31,07,22,26.00
2022,03,31,07,23,26.40
2022,03,31,07,24,28.70
2022,03,31,07,25,30.00
2022,03,31,07,26,31.20
2022,03,31,07,27,32.00
2022,03,31,07,28,32.80
2022,03,31,07,29,34.90
2022,03,31,07,30,35.40
2022,03,31,07,31,37.60
2022,03,31,07,32,39.00
2022,03,31,07,33,39.60
2022,03,31,07,34,40.00
2022,03,31,07,35,41.60
2022,03,31,07,36,42.00
2022,03,31,07,37,42.00
2022,03,31,07,38,42.70
2022,03,31,07,39,44.90
2022,03,31,07,40,46.00
2022,03,31,07,41,46.70
2022,03,31,07,42,47.00
2022,03,31,07,43,47.00
2022,03,31,07,44,47.00
2022,03,31,07,45,48.20
2022,03,31,07,46,53.20
2022,03,31,07,47,54.30
2022,03,31,07,48,53.00
2022,03,31,07,49,51.40
2022,03,31,07,50,51.00
2022,03,31,07,51,53.20
2022,03,31,07,52,68.00
2022,03,31,07,53,84.60
2022,03,31,07,54,90.00
2022,03,31,07,55,90.70
2022,03,31,07,56,85.40
2022,03,31,07,57,90.70
2022,03,31,07,58,93.90
2022,03,31,07,59,94.20
2022,03,31,08,00,104.00
2022,03,31,08,01,104.60
2022,03,31,08,02,99.10
2022,03,31,08,03,84.00
2022,03,31,08,04,73.70
2022,03,31,08,05,71.60
2022,03,31,08,06,84.30
2022,03,31,08,07,72.00
2022,03,31,08,08,73.10
2022,03,31,08,09,76.10
2022,03,31,08,10,80.40
2022,03,31,08,11,83.80
2022,03,31,08,12,86.00
2022,03,31,08,13,86.70
2022,03,31,08,14,89.30
2022,03,31,08,15,100.30
2022,03,31,08,16,146.20
2022,03,31,08,17,187.00
2022,03,31,08,18,196.60
2022,03,31,08,19,188.20
2022,03,31,08,20,167.00
2022,03,31,08,21,203.60
2022,03,31,08,22,221.10
2022,03,31,08,23,219.50
2022,03,31,08,24,221.70
2022,03,31,08,25,231.60
2022,03,31,08,26,234.00
2022,03,31,08,27,236.70
2022,03,31,08,28,243.00
2022,03,31,08,29,243.00
2022,03,31,08,30,243.00
2022,03,31,08,31,133.50
2022,03,31,08,32,109.60
2022,03,31,08,33,113.60
2022,03,31,08,34,117.60
2022,03,31,08,35,124.20
2022,03,31,08,36,130.20
2022,03,31,08,37,133.50
2022,03,31,08,38,134.00
2022,03,31,08,39,134.10
2022,03,31,08,40,136.20
2022,03,31,08,41,147.60
2022,03,31,08,42,180.10
2022,03,31,08,43,184.00
2022,03,31,08,44,163.10
2022,03,31,08,45,221.10
2022,03,31,08,46,172.10
2022,03,31,08,47,140.20
2022,03,31,08,48,137.00
2022,03,31,08,49,137.00
2022,03,31,08,50,137.00
2022,03,31,08,51,138.40
2022,03,31,08,52,141.40
2022,03,31,08,53,147.60
2022,03,31,08,54,153.60
2022,03,31,08,55,156.60
2022,03,31,08,56,158.00
2022,03,31,08,57,158.00
2022,03,31,08,58,159.30
2022,03,31,08,59,161.70
2022,03,31,09,00,165.40
2022,03,31,09,01,173.50
2022,03,31,09,02,183.90
2022,03,31,09,03,186.00
2022,03,31,09,04,188.20
2022,03,31,09,05,188.60
2022,03,31,09,06,188.00
2022,03,31,09,07,188.40
2022,03,31,09,08,196.80
2022,03,31,09,09,210.30
2022,03,31,09,10,223.20
2022,03,31,09,11,222.00
2022,03,31,09,12,227.20
2022,03,31,09,13,229.00
2022,03,31,09,14,239.80
2022,03,31,09,15,256.60
2022,03,31,09,16,323.00
2022,03,31,09,17,386.40
2022,03,31,09,18,486.00
2022,03,31,09,19,496.00
2022,03,31,09,20,498.50
2022,03,31,09,21,504.00
2022,03,31,09,22,506.80
2022,03,31,09,23,510.90
2022,03,31,09,24,514.90
2022,03,31,09,25,522.20
2022,03,31,09,26,530.90
2022,03,31,09,27,533.80
2022,03,31,09,28,516.60
2022,03,31,09,29,502.50
2022,03,31,09,30,485.00
2022,03,31,09,31,457.00
2022,03,31,09,32,353.60
2022,03,31,09,33,276.20
2022,03,31,09,34,261.60
2022,03,31,09,35,249.30
2022,03,31,09,36,269.80
2022,03,31,09,37,285.20
2022,03,31,09,38,359.50
2022,03,31,09,39,369.10
2022,03,31,09,40,357.10
2022,03,31,09,41,337.90
2022,03,31,09,42,287.60
2022,03,31,09,43,314.70
2022,03,31,09,44,366.00
2022,03,31,09,45,419.60
2022,03,31,09,46,513.00
2022,03,31,09,47,500.80
2022,03,31,09,48,433.30
2022,03,31,09,49,489.40
2022,03,31,09,50,517.70
2022,03,31,09,51,512.70
2022,03,31,09,52,508.00
2022,03,31,09,53,504.60
2022,03,31,09,54,504.60
2022,03,31,09,55,504.00
2022,03,31,09,56,505.30
2022,03,31,09,57,501.00
2022,03,31,09,58,499.50
2022,03,31,09,59,494.30
2022,03,31,10,00,490.40
2022,03,31,10,01,486.00
2022,03,31,10,02,485.00
2022,03,31,10,03,487.00
2022,03,31,10,04,490.80
2022,03,31,10,05,494.70
2022,03,31,10,06,496.50
2022,03,31,10,07,497.00
2022,03,31,10,08,499.80
2022,03,31,10,09,501.00
2022,03,31,10,10,507.90
2022,03,31,10,11,514.40
2022,03,31,10,12,521.80
2022,03,31,10,13,528.20
2022,03,31,10,14,532.10
2022,03,31,10,15,537.50
2022,03,31,10,16,542.40
2022,03,31,10,17,547.20
2022,03,31,10,18,555.00
2022,03,31,10,19,559.00
2022,03,31,10,20,564.70
2022,03,31,10,21,571.00
2022,03,31,10,22,578.50
2022,03,31,10,23,586.00
2022,03,31,10,24,594.30
2022,03,31,10,25,602.40
2022,03,31,10,26,610.50
2022,03,31,10,27,618.00
2022,03,31,10,28,625.70
2022,03,31,10,29,631.30
2022,03,31,10,30,645.00
2022,03,31,10,31,663.90
2022,03,31,10,32,682.90
2022,03,31,10,33,697.90
2022,03,31,10,34,710.20
2022,03,31,10,35,718.30
2022,03,31,10,36,727.80
2022,03,31,10,37,736.60
2022,03,31,10,38,748.50
2022,03,31,10,39,755.30
2022,03,31,10,40,760.40
2022,03,31,10,41,757.80
2022,03,31,10,42,756.00
2022,03,31,10,43,754.60
2022,03,31,10,44,746.60
2022,03,31,10,45,751.00
2022,03,31,10,46,757.80
2022,03,31,10,47,773.00
2022,03,31,10,48,585.60
2022,03,31,10,49,315.00
2022,03,31,10,50,315.00
2022,03,31,10,51,421.30
2022,03,31,10,52,439.00
2022,03,31,10,53,403.40
2022,03,31,10,54,243.00
2022,03,31,10,55,243.00
2022,03,31,10,56,243.00
2022,03,31,10,57,243.00
2022,03,31,10,58,232.10
2022,03,31,10,59,230.00
2022,03,31,11,00,239.60
2022,03,31,11,01,278.00
2022,03,31,11,02,473.30
2022,03,31,11,03,706.00
2022,03,31,11,04,695.80
2022,03,31,11,05,685.80
2022,03,31,11,06,669.90
2022,03,31,11,07,648.80
2022,03,31,11,08,633.80
2022,03,31,11,09,626.80
2022,03,31,11,10,622.90
2022,03,31,11,11,622.00
2022,03,31,11,12,622.00
2022,03,31,11,13,622.00
2022,03,31,11,14,622.00
2022,03,31,11,15,622.00
2022,03,31,11,16,622.90
2022,03,31,11,17,626.20
2022,03,31,11,18,628.70
2022,03,31,11,19,632.40
2022,03,31,11,20,633.20
2022,03,31,11,21,635.20
2022,03,31,11,22,636.00
2022,03,31,11,23,638.50
2022,03,31,11,24,642.00
2022,03,31,11,25,644.10
2022,03,31,11,26,645.00
2022,03,31,11,27,647.10
2022,03,31,11,28,648.60
2022,03,31,11,29,647.60
2022,03,31,11,30,649.40
2022,03,31,11,31,649.40
2022,03,31,11,32,649.70
2022,03,31,11,33,650.00
2022,03,31,11,34,652.00
2022,03,31,11,35,654.60
2022,03,31,11,36,657.60
2022,03,31,11,37,660.70
2022,03,31,11,38,663.00
2022,03,31,11,39,663.00
2022,03,31,11,40,669.50
2022,03,31,11,41,677.40
2022,03,31,11,42,686.10
2022,03,31,11,43,698.20
2022,03,31,11,44,712.40
2022,03,31,11,45,724.50
2022,03,31,11,46,734.50
2022,03,31,11,47,746.60
2022,03,31,11,48,769.00
2022,03,31,11,49,780.00
2022,03,31,11,50,780.00
2022,03,31,11,51,778.80
2022,03,31,11,52,782.80
2022,03,31,11,53,788.70
2022,03,31,11,54,788.20
2022,03,31,11,55,792.90
2022,03,31,11,56,797.00
2022,03,31,11,57,805.00
2022,03,31,11,58,641.70
2022,03,31,11,59,424.00
2022,03,31,12,00,694.20
2022,03,31,12,01,798.10
2022,03,31,12,02,740.00
2022,03,31,12,03,737.00
2022,03,31,12,04,576.60
2022,03,31,12,05,229.00
2022,03,31,12,06,506.60
2022,03,31,12,07,784.20
2022,03,31,12,08,795.00
2022,03,31,12,09,795.00
2022,03,31,12,10,669.40
2022,03,31,12,11,153.80
2022,03,31,12,12,122.10
2022,03,31,12,13,111.70
2022,03,31,12,14,101.10
2022,03,31,12,15,100.00
2022,03,31,12,16,102.60
2022,03,31,12,17,117.80
2022,03,31,12,18,125.90
2022,03,31,12,19,127.50
2022,03,31,12,20,123.70
2022,03,31,12,21,117.40
2022,03,31,12,22,116.00
2022,03,31,12,23,117.90
2022,03,31,12,24,122.70
2022,03,31,12,25,133.90
2022,03,31,12,26,146.70
2022,03,31,12,27,158.50
2022,03,31,12,28,170.30
2022,03,31,12,29,178.20
2022,03,31,12,30,192.00
2022,03,31,12,31,278.00
2022,03,31,12,32,346.10
2022,03,31,12,33,330.00
2022,03,31,12,34,330.00
2022,03,31,12,35,330.00
2022,03,31,12,36,706.70
2022,03,31,12,37,801.20
2022,03,31,12,38,802.00
2022,03,31,12,39,802.00
2022,03,31,12,40,802.00
2022,03,31,12,41,802.00
2022,03,31,12,42,745.30
2022,03,31,12,43,721.00
2022,03,31,12,44,671.20
2022,03,31,12,45,223.00
2022,03,31,12,46,426.60
2022,03,31,12,47,863.00
2022,03,31,12,48,864.10
2022,03,31,12,49,871.30
2022,03,31,12,50,880.40
2022,03,31,12,51,894.70
2022,03,31,12,52,896.00
2022,03,31,12,53,878.30
2022,03,31,12,54,837.00
2022,03,31,12,55,656.00
2022,03,31,12,56,508.00
2022,03,31,12,57,400.00
2022,03,31,12,58,364.50
2022,03,31,12,59,220.60
2022,03,31,13,00,278.10
2022,03,31,13,01,240.50
2022,03,31,13,02,246.00
2022,03,31,13,03,246.00
2022,03,31,13,04,246.00
2022,03,31,13,05,164.80
2022,03,31,13,06,151.00
2022,03,31,13,07,151.50
2022,03,31,13,08,155.90
2022,03,31,13,09,186.40
2022,03,31,13,10,187.90
2022,03,31,13,11,167.40
2022,03,31,13,12,165.30
2022,03,31,13,13,171.20
2022,03,31,13,14,173.80
2022,03,31,13,15,172.10
2022,03,31,13,16,163.20
2022,03,31,13,17,162.00
2022,03,31,13,18,169.20
2022,03,31,13,19,172.60
2022,03,31,13,20,180.80
2022,03,31,13,21,189.30
2022,03,31,13,22,192.40
2022,03,31,13,23,196.40
2022,03,31,13,24,206.00
2022,03,31,13,25,218.30
2022,03,31,13,26,229.90
2022,03,31,13,27,241.30
2022,03,31,13,28,256.00
2022,03,31,13,29,277.80
2022,03,31,13,30,310.30
2022,03,31,13,31,383.00
2022,03,31,13,32,403.00
2022,03,31,13,33,555.70
2022,03,31,13,34,635.80
2022,03,31,13,35,905.70
2022,03,31,13,36,904.30
2022,03,31,13,37,907.60
2022,03,31,13,38,904.00
2022,03,31,13,39,904.00
2022,03,31,13,40,904.00
2022,03,31,13,41,904.00
2022,03,31,13,42,904.00
2022,03,31,13,43,638.30
2022,03,31,13,44,345.50
2022,03,31,13,45,337.00
2022,03,31,13,46,312.90
2022,03,31,13,47,295.40
2022,03,31,13,48,271.10
2022,03,31,13,49,255.90
2022,03,31,13,50,251.80
2022,03,31,13,51,261.40
2022,03,31,13,52,287.20
2022,03,31,13,53,335.00
2022,03,31,13,54,345.30
2022,03,31,13,55,340.70
2022,03,31,13,56,363.40
2022,03,31,13,57,412.70
2022,03,31,13,58,438.00
2022,03,31,13,59,438.00
2022,03,31,14,00,452.30
2022,03,31,14,01,456.60
2022,03,31,14,02,481.80
2022,03,31,14,03,453.70
2022,03,31,14,04,439.00
2022,03,31,14,05,688.10
2022,03,31,14,06,875.00
2022,03,31,14,07,875.00
2022,03,31,14,08,647.00
2022,03,31,14,09,692.10
2022,03,31,14,10,935.00
2022,03,31,14,11,953.00
2022,03,31,14,12,1020.10
2022,03,31,14,13,1047.40
2022,03,31,14,14,1045.60
2022,03,31,14,15,1012.30
2022,03,31,14,16,371.60
2022,03,31,14,17,364.10
2022,03,31,14,18,356.10
2022,03,31,14,19,347.80
2022,03,31,14,20,341.50
2022,03,31,14,21,339.40
2022,03,31,14,22,339.40
2022,03,31,14,23,353.80
2022,03,31,14,24,359.10
2022,03,31,14,25,366.00
2022,03,31,14,26,369.00
2022,03,31,14,27,370.50
2022,03,31,14,28,373.40
2022,03,31,14,29,381.80
2022,03,31,14,30,403.00
2022,03,31,14,31,403.00
2022,03,31,14,32,419.40
2022,03,31,14,33,487.40
2022,03,31,14,34,517.00
2022,03,31,14,35,544.00
2022,03,31,14,36,476.10
2022,03,31,14,37,457.00
2022,03,31,14,38,396.90
2022,03,31,14,39,373.60
2022,03,31,14,40,360.30
2022,03,31,14,41,354.20
2022,03,31,14,42,367.60
2022,03,31,14,43,371.00
2022,03,31,14,44,374.60
2022,03,31,14,45,388.00
2022,03,31,14,46,383.00
2022,03,31,14,47,383.00
2022,03,31,14,48,357.10
2022,03,31,14,49,338.00
2022,03,31,14,50,324.40
2022,03,31,14,51,310.80
2022,03,31,14,52,299.70
2022,03,31,14,53,291.50
2022,03,31,14,54,289.10
2022,03,31,14,55,308.20
2022,03,31,14,56,316.00
2022,03,31,14,57,313.20
2022,03,31,14,58,285.30
2022,03,31,14,59,269.80
2022,03,31,15,00,255.30
2022,03,31,15,01,237.20
2022,03,31,15,02,223.60
2022,03,31,15,03,216.80
2022,03,31,15,04,212.90
2022,03,31,15,05,211.40
2022,03,31,15,06,213.00
2022,03,31,15,07,213.00
2022,03,31,15,08,210.80
2022,03,31,15,09,207.00
2022,03,31,15,10,206.00
2022,03,31,15,11,208.20
2022,03,31,15,12,221.70
2022,03,31,15,13,230.60
2022,03,31,15,14,245.40
2022,03,31,15,15,264.30
2022,03,31,15,16,288.10
2022,03,31,15,17,320.30
2022,03,31,15,18,322.50
2022,03,31,15,19,324.00
2022,03,31,15,20,318.70
2022,03,31,15,21,316.00
2022,03,31,15,22,309.10
2022,03,31,15,23,298.70
2022,03,31,15,24,300.20
2022,03,31,15,25,298.70
2022,03,31,15,26,295.10
2022,03,31,15,27,301.50
2022,03,31,15,28,299.50
2022,03,31,15,29,291.20
2022,03,31,15,30,293.40
2022,03,31,15,31,312.00
2022,03,31,15,32,304.40
2022,03,31,15,33,302.00
2022,03,31,15,34,302.00
2022,03,31,15,35,330.80
2022,03,31,15,36,366.00
2022,03,31,15,37,668.50
2022,03,31,15,38,782.00
2022,03,31,15,39,370.70
2022,03,31,15,40,356.40
2022,03,31,15,41,482.00
2022,03,31,15,42,356.00
2022,03,31,15,43,218.40
2022,03,31,15,44,264.90
2022,03,31,15,45,243.60
2022,03,31,15,46,246.70
2022,03,31,15,47,263.40
2022,03,31,15,48,271.20
2022,03,31,15,49,276.00
2022,03,31,15,50,276.00
2022,03,31,15,51,250.10
2022,03,31,15,52,199.30
2022,03,31,15,53,273.60
2022,03,31,15,54,329.00
2022,03,31,15,55,422.70
2022,03,31,15,56,657.00
2022,03,31,15,57,657.00
2022,03,31,15,58,657.00
2022,03,31,15,59,640.00
2022,03,31,16,00,618.90
2022,03,31,16,01,617.00
2022,03,31,16,02,617.00
2022,03,31,16,03,625.50
2022,03,31,16,04,637.10
2022,03,31,16,05,630.20
2022,03,31,16,06,626.00
2022,03,31,16,07,626.00
2022,03,31,16,08,548.60
2022,03,31,16,09,239.00
2022,03,31,16,10,439.80
2022,03,31,16,11,663.00
2022,03,31,16,12,663.00
2022,03,31,16,13,663.00
2022,03,31,16,14,656.00
2022,03,31,16,15,586.60
2022,03,31,16,16,573.20
2022,03,31,16,17,562.40
2022,03,31,16,18,553.20
2022,03,31,16,19,548.70
2022,03,31,16,20,543.80
2022,03,31,16,21,540.80
2022,03,31,16,22,537.70
2022,03,31,16,23,535.10
2022,03,31,16,24,531.30
2022,03,31,16,25,480.40
2022,03,31,16,26,505.90
2022,03,31,16,27,527.40
2022,03,31,16,28,524.10
2022,03,31,16,29,521.60
2022,03,31,16,30,520.00
2022,03,31,16,31,520.90
2022,03,31,16,32,523.20
2022,03,31,16,33,530.50
2022,03,31,16,34,534.00
2022,03,31,16,35,532.30
2022,03,31,16,36,516.00
2022,03,31,16,37,510.60
2022,03,31,16,38,505.80
2022,03,31,16,39,501.90
2022,03,31,16,40,499.60
2022,03,31,16,41,497.30
2022,03,31,16,42,496.10
2022,03,31,16,43,495.60
2022,03,31,16,44,493.40
2022,03,31,16,45,491.10
2022,03,31,16,46,489.40
2022,03,31,16,47,494.20
2022,03,31,16,48,449.00
2022,03,31,16,49,435.50
2022,03,31,16,50,388.00
2022,03,31,16,51,406.30
2022,03,31,16,52,470.80
2022,03,31,16,53,490.50
2022,03,31,16,54,472.70
2022,03,31,16,55,386.30
2022,03,31,16,56,452.70
2022,03,31,16,57,423.20
2022,03,31,16,58,322.60
2022,03,31,16,59,404.10
2022,03,31,17,00,425.00
2022,03,31,17,01,425.00
2022,03,31,17,02,425.00
2022,03,31,17,03,423.70
2022,03,31,17,04,392.60
2022,03,31,17,05,385.00
2022,03,31,17,06,425.60
2022,03,31,17,07,421.90
2022,03,31,17,08,418.60
2022,03,31,17,09,417.20
2022,03,31,17,10,413.00
2022,03,31,17,11,410.40
2022,03,31,17,12,407.40
2022,03,31,17,13,405.00
2022,03,31,17,14,402.20